Tracking 29892 objects as of 21-Nov-2024
HD Live streaming from Space Station
objects crossing your sky now

TITAN 3C TRANSTAGE R/B

Track TITAN 3C TRANSTAGE R/B now!


NORAD ID: 50000
Int'l Code: 1970-027C
Perigee: 11,111.5 km
Apogee: 121,559.3 km
Inclination: 36.0 °
Period: 3,251.8 minutes
Semi major axis: 72706 km
RCS: Unknown
Launch date: April 8, 1970
Source: United States (US)
Launch site: AIR FORCE EASTERN TEST RANGE (AFETR)

Note: This is a ROCKET BODY
Your satellite tracking list
Your tracking list is empty




NASA's NSSDC Master Catalog

Two Line Element Set (TLE):
1 50000U 70027C   24326.55284571 -.00000723  00000-0  00000-0 0  9998
2 50000  35.9510  73.6330 7595461 190.2098 359.3636  0.44283676 88638
Source of the keplerian elements: AFSPC